Regional Weather Roundup
Issued by NWS

Home | Current Version | Previous Version | Graphics & Text | Print | Product List | Glossary Off
Versions: 1 2 3 4 5 6 7 8 9 10 11 12 13 14 15 16 17 18 19 20 21 22 23 24 25 26 27 28 29 30 31 32 33 34 35 36 37 38 39 40 41 42 43 44 45 46 47 48 49 50

000
ASUS43 KFSD 191210
RWRSD

WEATHER ROUNDUP FOR SOUTH DAKOTA
NATIONAL WEATHER SERVICE SIOUX FALLS SD
700 AM CDT SAT APR 19 2014

NOTE: "FAIR" INDICATES FEW OR NO CLOUDS BELOW 12,000 FEET WITH NO
SIGNIFICANT WEATHER AND/OR OBSTRUCTIONS TO VISIBILITY.


SDZ001>005-009-010-012>017-191300-
NORTHWEST AND NORTH CENTRAL SOUTH DAKOTA

CITY           SKY/WX    TMP DP  RH WIND       PRES   REMARKS
BUFFALO          N/A     32  24  72 W9        29.87R WCI  24
FAITH            N/A     39  31  72 W12       29.93R
MOBRIDGE       MOCLDY    41  33  73 NW6       29.86R
$$

SDZ012>016-024>037-041>051-057-063-072>074-191300-
SOUTHWEST AND SOUTH CENTRAL SOUTH DAKOTA

CITY           SKY/WX    TMP DP  RH WIND       PRES   REMARKS
RAPID CTY ARPT MOCLDY    42  19  39 NW12      29.95R
PIERRE         PTCLDY    43  34  70 W12       29.91R
CUSTER         MOCLDY    36  30  79 NW3       29.98R
ELLSWORTH AFB  PTCLDY    42  17  37 NW9       29.96R
PHILIP         PTCLDY    40  32  73 W9        29.95R
PINE RIDGE     MOCLDY    39  33  79 NE5       29.98R
SPEARFISH      FAIR      39  14  35 W10       29.99R
WINNER         FAIR      47  38  71 W7        29.94R
$$

SDZ004>011-016>023-039-040-191300-
NORTHEAST SOUTH DAKOTA

CITY           SKY/WX    TMP DP  RH WIND       PRES   REMARKS
ABERDEEN       MOCLDY    45  38  76 W6        29.86R
WATERTOWN      CLOUDY    51  41  68 SW17      29.85R
SISSETON         N/A     57  43  59 SW23G37   29.79R
$$

SDZ017-020-022-023-036>040-048>070-191300-
SOUTHEAST SOUTH DAKOTA

CITY           SKY/WX    TMP DP  RH WIND       PRES   REMARKS
SIOUX FALLS    MOCLDY    53  39  59 S18G25    29.94S
HURON          CLOUDY    52  40  63 N13       29.86R
CHAMBERLAIN      N/A     50  39  66 CALM      29.92R
MITCHELL       PTCLDY    56  42  59 W16G26    29.90R
YANKTON        PTCLDY    54  39  58 S8        29.97S
$$

ABBREVIATIONS USED IN REMARKS
   TC - TEMPERATURE IN CELSIUS
  WCI - WIND CHILL INDEX
   HX - HEAT INDEX
  VSB - VISIBILITY




USA.gov is the U.S. government's official web portal to all federal, state and local government web resources and services.